Portada
METAR-TAF:

METAR-TAF

Aeropuertos :

Aeropuerto Alfonso López Pumarejo

Valledupar, Colombia

latitud: 10-26N, longitud: 073-15W, altitud: 138 m

Observación

El informe se hizo hace 53 minutos, a las 00:00 UTC
Viento 10 kt del este
Temperatura 29°C
Humedad 70%
Presión 1010 hPa
Visibilidad 10 km o más
Escasas nubes a una altura de 1500 ft
Nubes dispersas a una altura de 20000 ft

METAR: SKVP 190000Z 08010KT 9999 FEW015 SCT200 29/23 A2983

Hora: 19:53 (00:53 UTC)


TAF: falta

Observaciones y pronósticos meteorológicos de más de 4000 aeropuertos (mensajes METAR y TAF).

Los puntos amarillos y rojos representan las estaciones disponibles.

Ponga el ratón en el punto deseado para ver el nombre de la estación.

Haga clic para ver las observaciones y los pronósticos meteorológicos.

Para cambiar el mapa : haga clic en los botones verdes con una cruz de color negro para hacer un zoom, en el botón verde con un guión para alejar o en las flechas verdes para mapas adyacentes.


METAR-TAF: